Probability
0 0 0 0 0 0 0 0 0 0 0 0 0 0 0 0 0 0 0 0 0 0 0 0 0 0 0 0 0 0 0 0 0 0 1 2 2 3 4 4 4 2 1
0 0 0 0 0 0 0 0 0 0 0 0 0 0 0 0 0 0 0 0 0 0 0 0 0 0 0 0 0 0 0 0 0 0 0 1 1 3 3 3 3 2 2
0 0 0 0 0 0 0 0 0 0 0 0 0 0 0 0 0 0 0 0 0 0 0 1 0 0 0 0 0 0 0 0 0 0 0 0 1 2 3 2 1 2 2
0 0 0 0 0 0 0 0 0 0 0 0 0 0 0 0 0 0 0 0 0 0 0 0 0 0 0 0 0 0 0 0 0 0 0 1 1 2 2 1 0 1 1
0 0 0 0 0 0 0 0 0 0 0 0 0 0 0 0 0 0 0 0 0 0 0 0 0 0 0 0 0 0 0 0 0 0 0 0 1 1 1 0 0 0 0
0 0 0 0 0 0 0 0 0 0 0 0 0 0 0 0 0 0 0 0 0 0 0 0 0 0 0 0 0 0 0 0 0 0 0 0 0 0 0 0 0 0 0
0 0 0 0 0 0 0 0 0 0 0 0 0 0 0 0 0 0 0 0 0 0 0 0 0 0 0 0 0 0 0 0 0 0 0 0 0 0 0 0 0 0 0
0 0 0 0 0 0 0 0 0 0 0 0 0 0 0 0 0 0 0 0 0 0 0 0 0 0 0 0 0 0 0 0 0 0 0 0 0 0 0 0 0 0 0
0 0 0 0 0 0 0 0 0 0 0 0 0 0 0 0 0 0 0 0 0 0 0 0 0 0 0 0 0 0 0 0 1 0 0 0 0 0 0 0 0 0 0
0 0 0 0 0 0 0 0 0 0 0 0 0 0 0 0 0 0 0 0 0 0 0 0 0 0 0 0 0 0 0 0 0 0 0 0 0 0 0 0 0 0 0
0 0 0 0 0 0 0 0 0 0 0 0 0 0 0 0 0 0 0 0 0 0 0 0 0 0 0 0 0 0 0 0 0 0 0 0 0 0 0 0 0 0 0
0 0 0 0 0 0 0 0 0 0 0 0 0 0 0 0 0 0 0 0 0 0 0 0 0 0 0 0 0 0 0 0 0 0 0 0 0 0 0 0 0 0 0
0 0 0 0 0 0 0 0 0 0 0 0 0 0 0 0 0 0 0 0 0 0 0 0 0 0 0 0 0 0 0 0 0 0 0 0 0 0 0 0 0 0 0
0 0 0 0 0 0 0 0 0 0 0 0 0 0 0 0 0 0 0 0 0 0 0 0 0 0 0 0 0 0 0 0 0 0 0 0 0 0 0 0 0 0 0
0 0 0 0 0 0 0 0 0 0 0 0 0 0 0 0 0 0 0 0 0 0 0 0 0 0 0 0 0 0 0 0 0 0 0 0 0 0 0 0 0 0 0
0 0 0 0 0 0 0 0 0 0 0 0 0 0 0 0 0 0 0 0 0 0 0 0 0 0 0 0 0 0 0 0 0 0 0 0 0 0 0 0 0 0 0
0 0 0 0 0 0 0 0 0 0 0 0 0 0 0 0 0 0 0 0 0 0 0 0 0 0 0 0 0 0 0 0 0 0 0 0 0 0 0 0 0 0 0
0 0 0 0 0 0 0 0 0 0 0 0 0 0 0 0 0 0 0 0 0 0 0 0 0 0 0 0 0 0 0 0 0 0 0 0 0 0 0 0 0 0 0
0 0 0 0 0 0 0 0 0 0 0 0 0 0 0 0 0 0 0 0 0 0 0 0 0 0 0 0 0 0 0 0 0 0 0 0 0 0 0 0 0 0 0
0 0 0 0 0 0 0 0 0 0 0 0 0 0 0 0 0 0 0 0 0 0 0 0 0 0 0 0 0 0 0 0 0 0 0 0 0 0 0 0 0 0 0
0 0 0 0 0 0 0 0 0 0 0 0 0 0 0 0 0 0 0 0 0 0 0 0 0 0 0 0 0 0 0 0 0 0 0 0 0 0 0 0 0 0 0
0 0 0 0 0 0 0 0 0 0 0 0 0 0 0 0 0 0 0 0 0 0 0 0 0 0 0 0 0 0 0 0 0 0 0 0 0 0 0 0 0 0 0
0 0 0 0 0 0 0 0 0 0 0 0 0 0 0 0 0 0 0 0 0 0 0 0 0 0 0 0 0 0 0 0 0 0 0 0 0 0 0 0 0 0 0
0 0 0 0 0 0 0 0 0 0 0 0 0 0 0 0 0 0 0 0 0 0 0 0 0 0 0 0 0 0 0 0 0 0 0 0 0 0 0 0 0 0 0
0 0 0 0 0 0 0 0 0 0 0 0 0 0 0 0 0 0 0 0 0 0 0 0 0 0 0 0 0 0 0 0 0 0 0 0 0 0 0 0 0 0 0
0 0 0 0 0 0 0 0 0 0 0 0 0 0 0 0 0 0 0 0 0 0 0 0 0 0 0 0 0 0 0 0 0 0 0 0 0 0 0 0 0 0 0
Wind_Speed
2 2 2 2 2 2 2 2 2 3 3 3 3 3 3 3 3 2 3 7 6 5 5 4 4 4 5 5 5 6 6 6 5 5 4 4 4 4 3 4 4 3 3
3 3 3 2 2 2 2 2 2 2 2 2 3 3 2 2 3 2 2 4 6 5 5 4 4 4 4 5 5 5 6 5 5 4 4 3 4 4 4 4 4 4 3
4 3 3 3 2 3 3 3 3 2 2 2 2 2 2 3 2 2 2 2 2 5 5 5 4 4 4 4 4 4 5 5 5 5 4 3 3 3 4 4 4 4 4
4 4 3 3 3 3 3 3 2 2 2 2 2 2 2 2 2 2 2 2 2 2 4 5 4 4 3 3 4 4 4 4 5 4 5 4 3 3 4 4 4 4 5
5 4 3 3 3 3 3 3 2 2 2 2 2 2 1 1 2 2 2 2 2 2 2 3 4 4 3 3 3 3 3 4 4 4 5 4 3 4 4 4 4 5 5
5 5 4 4 4 3 3 3 3 2 2 2 2 1 1 1 1 1 1 1 1 2 2 2 2 3 4 3 3 2 3 3 3 4 4 4 4 4 5 5 5 6 6
6 5 4 5 4 4 4 4 4 4 3 2 1 1 0 0 0 0 0 1 1 1 1 2 2 2 2 3 3 3 3 3 3 4 4 4 4 5 5 6 6 6 7
6 5 6 5 5 4 5 5 5 3 2 2 1 1 1 2 2 1 1 1 1 1 1 1 1 2 2 1 2 3 4 4 4 4 4 4 5 6 6 7 7 8 7
6 6 6 5 6 5 5 6 6 5 4 3 2 2 2 2 1 2 2 2 2 1 1 1 1 1 2 1 1 1 3 4 4 4 5 5 6 6 7 7 7 8 8
7 7 7 7 6 5 6 6 6 5 5 4 3 2 2 1 2 1 2 2 2 3 2 2 2 2 2 1 1 1 3 3 4 5 6 7 7 8 8 8 8 8 9
7 7 7 7 6 6 6 7 6 6 5 5 4 3 2 2 2 2 2 2 2 3 3 3 2 2 2 2 2 1 2 3 5 5 7 8 8 8 8 9 9 9 9
6 7 7 7 7 6 6 7 7 7 6 6 5 4 3 3 3 3 3 2 2 2 3 3 3 3 3 3 2 2 3 4 5 6 7 8 9 9 9 9 10 10 10
6 8 7 7 7 7 7 6 7 7 7 7 6 5 4 3 2 2 3 2 3 2 2 3 3 3 3 3 3 3 4 5 6 7 8 8 9 9 9 10 10 11 10
6 7 8 7 7 7 7 7 6 6 6 6 7 6 4 4 3 3 3 2 2 3 3 3 2 3 3 3 3 5 4 6 7 8 9 9 9 10 10 11 11 12 12
5 7 7 7 7 7 7 7 6 7 6 6 6 6 5 4 4 4 3 3 3 4 3 3 2 3 3 3 3 4 5 5 8 9 10 10 10 11 11 11 12 12 13
7 7 7 7 7 7 7 7 6 6 6 6 5 6 6 4 4 4 4 4 4 4 4 2 3 2 3 3 4 5 5 6 8 9 10 11 11 12 12 12 12 13 13
7 8 8 8 7 7 7 7 7 7 7 7 6 7 7 6 5 4 4 4 4 4 5 4 3 3 4 4 4 4 5 5 5 8 10 11 11 12 12 13 13 13 14
7 7 7 7 7 7 7 8 8 8 8 8 7 7 7 5 6 5 5 6 5 5 5 6 4 4 5 5 5 5 5 5 5 7 10 11 12 12 13 13 13 13 13
6 7 7 8 8 8 8 8 8 8 8 8 8 8 7 7 7 5 6 5 5 4 5 5 5 4 4 3 5 5 6 5 5 6 8 10 12 12 13 13 13 13 12
6 7 7 7 7 7 7 7 7 7 7 7 7 7 7 8 8 7 6 6 5 5 5 5 5 4 4 3 4 4 5 4 5 4 6 8 10 11 12 12 11 11 11
6 6 6 6 6 6 6 7 7 7 7 6 6 6 7 7 8 7 5 6 6 5 4 5 5 5 4 3 4 4 5 5 5 3 4 5 5 5 6 8 9 10 11
5 5 6 6 6 5 7 9 7 6 6 7 7 6 6 6 7 8 8 8 7 7 6 6 5 6 6 5 4 4 4 4 4 2 4 5 4 5 5 5 7 10 11
4 5 5 6 6 6 8 9 9 6 6 6 6 6 5 4 6 6 7 7 7 8 8 7 7 8 6 5 4 5 5 5 5 3 3 5 4 6 5 5 9 11 11
4 4 4 5 5 5 7 8 8 7 5 5 5 5 5 5 5 5 5 5 6 6 7 6 7 6 5 4 5 5 5 5 5 4 3 5 4 5 5 5 8 11 12
3 3 3 4 4 4 5 6 6 4 4 4 4 4 4 5 6 6 5 5 5 5 5 6 6 6 6 6 5 3 3 4 5 3 3 4 4 4 5 5 5 9 11
2 2 1 2 2 2 2 4 5 3 4 3 3 3 4 5 5 6 5 5 5 4 3 3 4 5 5 5 6 5 5 5 4 4 3 3 3 3 5 3 3 4 6
Wind_Direction
152 144 139 134 130 129 129 114 100 92 83 75 69 61 56 42 45 43 42 33 26 38 52 57 57 59 69 74 74 75 77 80 72 62 56 47 38 40 37 33 27 22 10
161 155 152 149 143 138 131 127 117 106 92 80 72 63 57 44 47 42 39 42 34 32 40 46 49 56 64 67 70 73 74 71 67 57 48 44 30 23 17 14 6 3 357
171 164 163 159 156 148 141 135 125 120 105 92 80 62 51 40 48 44 30 27 39 40 39 42 45 51 49 59 70 72 73 65 56 45 31 23 9 6 2 -0 355 346 340
176 170 167 166 164 161 155 147 143 135 122 106 80 58 47 44 49 46 39 33 29 29 47 45 44 48 42 48 62 66 65 65 55 40 27 24 18 5 354 349 338 335 328
184 177 176 167 167 165 162 157 155 150 139 114 83 61 43 40 39 47 43 32 32 27 27 47 41 34 28 30 43 51 53 55 50 33 19 17 16 3 348 339 328 322 324
190 183 178 171 170 169 170 168 159 145 142 127 106 70 41 38 17 33 32 24 26 25 23 26 29 39 33 17 18 20 24 31 32 18 6 4 359 346 337 334 323 312 311
190 191 183 178 179 179 179 176 165 155 143 142 144 132 115 97 274 295 343 352 1 0 13 20 8 10 24 22 4 355 358 355 360 356 346 343 339 338 331 326 327 310 302
196 195 192 186 184 182 179 180 175 165 157 179 190 192 209 203 205 229 241 267 293 305 329 351 357 356 341 347 5 350 345 340 338 334 328 324 323 322 319 317 317 322 312
199 198 195 192 189 187 186 187 188 185 178 186 217 228 220 221 206 204 224 237 255 277 286 311 310 316 317 324 321 341 338 330 326 320 316 312 307 308 312 315 318 321 322
202 202 197 194 194 194 191 192 197 199 189 192 196 234 269 258 222 216 209 221 239 257 263 266 267 270 276 282 304 323 328 322 313 310 306 304 299 299 305 309 309 312 313
206 204 200 196 196 197 197 196 196 202 200 202 195 188 200 220 239 236 238 231 238 242 253 260 264 259 255 261 259 271 288 291 292 295 297 297 296 297 298 301 302 304 307
207 204 203 199 200 199 201 202 198 203 204 205 203 199 199 204 205 218 235 250 260 254 255 250 246 252 249 250 256 274 272 276 283 287 291 292 291 292 294 296 298 299 302
211 206 203 203 202 201 203 204 202 206 206 205 205 208 214 221 214 215 228 245 260 262 247 239 243 250 250 256 256 263 258 266 274 279 282 284 286 286 288 289 291 292 294
215 208 206 207 206 203 202 203 206 208 205 206 209 211 215 215 210 212 216 222 250 247 239 241 238 237 252 257 271 260 257 258 269 274 276 278 280 280 281 283 286 288 289
214 210 208 209 208 206 205 202 209 207 203 208 211 212 216 215 214 218 217 223 236 253 255 229 229 231 256 264 270 267 268 266 267 269 273 275 275 275 276 278 281 284 285
212 207 206 209 208 206 206 206 210 207 204 207 207 209 212 211 209 210 214 226 235 248 257 256 250 258 254 259 265 270 270 279 266 268 273 275 274 273 272 273 275 279 281
209 208 206 208 209 209 207 208 211 205 207 209 208 211 215 210 208 208 213 219 224 232 247 260 259 255 254 258 264 264 270 271 269 266 272 274 273 271 270 271 274 276 278
213 211 207 207 209 211 209 209 212 210 210 211 211 211 215 211 215 213 214 219 223 226 236 250 256 256 258 260 267 267 269 269 271 273 270 271 272 270 269 269 271 273 276
214 211 208 209 210 211 212 212 214 214 213 214 212 212 213 210 216 216 217 221 225 226 233 242 254 261 266 266 272 271 271 270 272 275 270 270 272 272 269 266 267 270 273
214 212 213 214 214 213 215 214 214 218 217 217 216 218 216 214 215 215 218 221 222 226 229 237 249 257 261 265 265 269 273 268 274 274 269 276 275 272 267 263 265 268 270
219 215 216 218 216 215 216 213 212 217 218 218 219 221 222 220 219 217 217 217 217 222 226 234 245 251 250 250 251 258 268 280 276 257 276 272 271 265 259 257 259 265 271
218 215 218 219 220 220 214 210 209 214 216 216 217 219 219 217 218 220 224 226 224 222 225 232 241 244 251 251 253 252 262 275 273 252 279 276 263 266 265 262 269 271 272
214 217 220 220 224 223 215 212 210 214 217 220 217 214 216 216 213 217 224 231 237 238 236 237 241 247 252 247 245 252 253 258 269 289 283 272 264 270 272 272 274 272 273
219 219 217 217 221 222 213 212 206 214 219 224 223 219 215 216 216 216 222 230 239 242 241 242 247 254 256 250 240 252 260 268 276 264 246 267 274 275 281 275 272 272 276
224 222 219 216 218 223 212 208 202 200 208 221 227 226 220 221 217 214 218 228 239 247 245 240 247 254 255 250 244 241 243 256 269 257 222 256 277 287 281 269 270 277 280
216 210 218 224 216 223 210 207 206 201 206 213 217 223 224 221 219 213 218 220 233 245 244 246 249 256 254 245 236 239 239 244 258 261 207 237 265 289 289 271 279 286 283